sat.trackr.live / text

‹ back to catalog

STARLINK-30857

NORAD 58595 · 2023-200G

PAYLOAD ACTIVE UNKNOWN

§ Identity

Operator
Country
US
Launch date
2023-12-19
Launch site
AFETR
Launch vehicle
Mass (kg)
RCS (m²)

Purposes: comms

External: N2YO · Heavens-Above · Gunter

§ Orbital elements

Epoch: 2026-09-20T22:50:25.035360Z

Period
94.27 min
Inclination
43.0007°
Eccentricity
0.0001317
Mean motion
15.27576096 rev/d
Perigee alt
482.2 km
Apogee alt
484.0 km
Semi-major
6,861.2 km
B*
4.9479e-5
RAAN
146.1171°
Arg perigee
267.3321°
Mean anomaly
92.7380°
Rev number
15,347

§ Raw data

STARLINK-308571 58595U 23200G   26263.95167865  .00001100  00000+0  49479-4 0  99932 58595  43.0007 146.1171 0001317 267.3321  92.7380 15.27576096153472

JSON: /api/v1/satellites/58595 · /tle

For live sub-satellite position, see the globe view (requires WebGL).

§ Visibility from observer

Set your observer location to see the next 7 days of passes ≥ 10°. The values pass through the URL so the page stays shareable.

No JS? Fill the form by hand. The geolocation button needs JavaScript.